| time (UTC) | temp F | wind direction | speed MPH | gust MPH | rain 1hr in | rain 24hr in | rain mn in | humidity % | barometer mb |
| 20260509211512 | 85 | 200 | 0.0 | 0.0 | 0.00 | 0.22 | 0.01 | 35 | 1005.8 |
| 20260509210010 | 85 | 173 | 0.0 | 0.0 | 0.00 | 0.22 | 0.01 | 34 | 1005.9 |
| 20260509204509 | 85 | 180 | 0.0 | 0.0 | 0.00 | 0.22 | 0.01 | 36 | 1006.0 |
| 20260509203007 | 86 | 141 | 0.0 | 0.0 | 0.00 | 0.22 | 0.01 | 35 | 1006.1 |
| 20260509201510 | 85 | 138 | 0.0 | 0.0 | 0.00 | 0.22 | 0.01 | 34 | 1006.3 |
| 20260509200001 | 85 | 156 | 0.0 | 0.0 | 0.00 | 0.22 | 0.01 | 35 | 1006.5 |
| 20260509194602 | 85 | 79 | 0.0 | 0.0 | 0.00 | 0.22 | 0.01 | 33 | 1006.7 |
| 20260509193057 | 84 | 103 | 0.0 | 0.0 | 0.00 | 0.22 | 0.01 | 35 | 1006.9 |
| 20260509191607 | 84 | 81 | 0.0 | 0.0 | 0.00 | 0.22 | 0.01 | 36 | 1007.0 |
| 20260509190054 | 84 | 71 | 0.0 | 0.0 | 0.00 | 0.22 | 0.01 | 35 | 1007.2 |
| 20260509184558 | 83 | 126 | 0.0 | 0.0 | 0.00 | 0.22 | 0.01 | 37 | 1007.5 |
| 20260509183055 | 83 | 119 | 0.0 | 0.0 | 0.00 | 0.22 | 0.01 | 35 | 1007.6 |
| 20260509181553 | 83 | 307 | 0.0 | 0.0 | 0.00 | 0.22 | 0.01 | 40 | 1007.8 |
| 20260509180055 | 83 | 152 | 0.0 | 0.0 | 0.00 | 0.22 | 0.01 | 37 | 1008.0 |
| 20260509174547 | 82 | 140 | 0.0 | 0.0 | 0.00 | 0.22 | 0.01 | 43 | 1008.2 |
| 20260509173053 | 81 | 91 | 0.0 | 0.0 | 0.00 | 0.22 | 0.01 | 41 | 1008.4 |
| 20260509171540 | 80 | 161 | 0.0 | 0.0 | 0.00 | 0.22 | 0.01 | 43 | 1008.5 |
| 20260509170033 | 79 | 142 | 0.0 | 0.0 | 0.00 | 0.22 | 0.01 | 52 | 1008.7 |
| 20260509164529 | 77 | 165 | 0.0 | 0.0 | 0.00 | 0.22 | 0.01 | 58 | 1008.6 |
| 20260509163029 | 77 | 149 | 0.0 | 0.0 | 0.00 | 0.22 | 0.01 | 63 | 1009.0 |
| 20260509161522 | 75 | 169 | 0.0 | 0.0 | 0.00 | 0.22 | 0.01 | 64 | 1009.1 |
| 20260509160020 | 75 | 151 | 0.0 | 0.0 | 0.00 | 0.22 | 0.01 | 65 | 1009.0 |
| 20260509154515 | 74 | 161 | 0.0 | 0.0 | 0.00 | 0.22 | 0.01 | 64 | 1008.9 |
| 20260509153028 | 72 | 117 | 0.0 | 0.0 | 0.00 | 0.22 | 0.01 | 66 | 1008.8 |
| 20260509151511 | 72 | 110 | 0.0 | 0.0 | 0.00 | 0.22 | 0.01 | 66 | 1008.7 |
| 20260509150007 | 71 | 109 | 0.0 | 0.0 | 0.00 | 0.22 | 0.01 | 77 | 1008.7 |
| 20260509144502 | 69 | 109 | 0.0 | 0.0 | 0.00 | 0.22 | 0.01 | 83 | 1008.5 |
| 20260509143059 | 66 | 131 | 0.0 | 0.0 | 0.00 | 0.22 | 0.01 | 89 | 1008.7 |
| 20260509141555 | 64 | 131 | 0.0 | 0.0 | 0.00 | 0.22 | 0.01 | 92 | 1009.0 |
| 20260509140105 | 62 | 131 | 0.0 | 0.0 | 0.00 | 0.22 | 0.01 | 94 | 1008.9 |
| 20260509134553 | 61 | 129 | 0.0 | 0.0 | 0.00 | 0.22 | 0.01 | 94 | 1008.8 |
| 20260509133049 | 61 | 128 | 0.0 | 0.0 | 0.00 | 0.22 | 0.01 | 95 | 1008.6 |
| 20260509131547 | 59 | 128 | 0.0 | 0.0 | 0.00 | 0.22 | 0.01 | 95 | 1008.4 |
| 20260509130047 | 58 | 128 | 0.0 | 0.0 | 0.00 | 0.22 | 0.01 | 95 | 1008.2 |
| 20260509124551 | 58 | 128 | 0.0 | 0.0 | 0.01 | 0.22 | 0.01 | 95 | 1008.0 |
| 20260509123045 | 56 | 128 | 0.0 | 0.0 | 0.01 | 0.22 | 0.01 | 96 | 1008.0 |
| 20260509121543 | 54 | 128 | 0.0 | 0.0 | 0.01 | 0.22 | 0.01 | 94 | 1007.8 |
| 20260509120045 | 54 | 128 | 0.0 | 0.0 | 0.01 | 0.22 | 0.01 | 94 | 1007.6 |
| 20260509114542 | 55 | 128 | 0.0 | 0.0 | 0.00 | 0.21 | 0.00 | 93 | 1007.5 |
| 20260509113040 | 55 | 128 | 0.0 | 0.0 | 0.00 | 0.21 | 0.00 | 93 | 1007.3 |
| 20260509111539 | 55 | 128 | 0.0 | 0.0 | 0.00 | 0.21 | 0.00 | 93 | 1007.2 |
| 20260509110038 | 55 | 128 | 0.0 | 0.0 | 0.00 | 0.21 | 0.00 | 93 | 1007.1 |
| 20260509104536 | 55 | 128 | 0.0 | 0.0 | 0.00 | 0.21 | 0.00 | 93 | 1007.1 |
| 20260509103038 | 55 | 128 | 0.0 | 0.0 | 0.00 | 0.21 | 0.00 | 93 | 1007.2 |
| 20260509101532 | 56 | 128 | 0.0 | 0.0 | 0.00 | 0.21 | 0.00 | 92 | 1007.3 |
| 20260509100030 | 56 | 128 | 0.0 | 0.0 | 0.00 | 0.21 | 0.00 | 93 | 1007.5 |
| 20260509094531 | 57 | 128 | 0.0 | 0.0 | 0.00 | 0.21 | 0.00 | 92 | 1007.8 |
| 20260509093028 | 57 | 128 | 0.0 | 0.0 | 0.00 | 0.21 | 0.00 | 92 | 1007.8 |
| 20260509091526 | 57 | 128 | 0.0 | 0.0 | 0.00 | 0.21 | 0.00 | 92 | 1007.7 |
| 20260509090035 | 57 | 128 | 0.0 | 0.0 | 0.00 | 0.21 | 0.00 | 91 | 1007.8 |
| 20260509084525 | 58 | 128 | 0.0 | 0.0 | 0.00 | 0.21 | 0.00 | 92 | 1007.5 |
| 20260509083024 | 58 | 128 | 0.0 | 0.0 | 0.00 | 0.21 | 0.00 | 91 | 1007.6 |
| 20260509081521 | 58 | 128 | 0.0 | 0.0 | 0.00 | 0.21 | 0.00 | 91 | 1007.5 |
| 20260509080018 | 59 | 128 | 0.0 | 0.0 | 0.00 | 0.21 | 0.00 | 91 | 1007.8 |
| 20260509074516 | 59 | 128 | 0.0 | 0.0 | 0.00 | 0.21 | 0.00 | 90 | 1008.0 |
| 20260509073030 | 60 | 128 | 0.0 | 0.0 | 0.00 | 0.21 | 0.00 | 90 | 1008.3 |
| 20260509071512 | 60 | 128 | 0.0 | 0.0 | 0.00 | 0.21 | 0.00 | 89 | 1008.3 |
| 20260509070010 | 61 | 128 | 0.0 | 0.0 | 0.00 | 0.21 | 0.00 | 89 | 1008.1 |
| 20260509064508 | 61 | 128 | 0.0 | 0.0 | 0.00 | 0.21 | 0.00 | 89 | 1008.1 |
| 20260509063013 | 61 | 128 | 0.0 | 0.0 | 0.00 | 0.21 | 0.00 | 89 | 1008.1 |
| 20260509061505 | 62 | 121 | 0.0 | 0.0 | 0.00 | 0.21 | 0.00 | 89 | 1008.3 |
| 20260509060004 | 62 | 121 | 0.0 | 0.0 | 0.00 | 0.21 | 0.00 | 88 | 1008.2 |
| 20260509054501 | 62 | 121 | 0.0 | 0.0 | 0.00 | 0.21 | 0.00 | 87 | 1008.1 |
| 20260509053117 | 63 | 121 | 0.0 | 0.0 | 0.00 | 0.21 | 0.00 | 87 | 1008.0 |
| 20260509051610 | 63 | 121 | 0.0 | 0.0 | 0.00 | 0.21 | 0.00 | 87 | 1008.1 |
| 20260509050058 | 63 | 117 | 0.0 | 0.0 | 0.00 | 0.21 | 0.00 | 87 | 1008.0 |
| 20260509044554 | 63 | 116 | 0.0 | 0.0 | 0.00 | 0.21 | 0.21 | 87 | 1008.1 |
| 20260509043059 | 63 | 115 | 0.0 | 0.0 | 0.00 | 0.21 | 0.21 | 88 | 1008.2 |
| 20260509041555 | 63 | 150 | 0.0 | 0.0 | 0.00 | 0.21 | 0.21 | 89 | 1008.1 |
| 20260509040107 | 63 | 157 | 0.0 | 0.0 | 0.00 | 0.21 | 0.21 | 89 | 1007.9 |
| 20260509034552 | 64 | 157 | 0.0 | 0.0 | 0.00 | 0.21 | 0.21 | 89 | 1007.7 |
| 20260509033111 | 64 | 166 | 0.0 | 0.0 | 0.00 | 0.21 | 0.21 | 89 | 1007.0 |
| 20260509031552 | 64 | 166 | 0.0 | 0.0 | 0.00 | 0.21 | 0.21 | 88 | 1006.8 |
| 20260509030052 | 65 | 166 | 0.0 | 0.0 | 0.00 | 0.21 | 0.21 | 88 | 1006.3 |
| 20260509024558 | 65 | 166 | 0.0 | 0.0 | 0.00 | 0.21 | 0.21 | 88 | 1006.1 |
| 20260509023050 | 66 | 167 | 0.0 | 0.0 | 0.00 | 0.21 | 0.21 | 87 | 1006.1 |
| 20260509021549 | 66 | 175 | 0.0 | 0.0 | 0.00 | 0.21 | 0.21 | 85 | 1006.0 |
| 20260509014548 | 67 | 175 | 0.0 | 0.0 | 0.00 | 0.21 | 0.21 | 81 | 1005.1 |
| 20260509013048 | 68 | 175 | 0.0 | 0.0 | 0.00 | 0.21 | 0.21 | 80 | 1004.7 |
| 20260509011551 | 69 | 175 | 0.0 | 0.0 | 0.00 | 0.21 | 0.21 | 80 | 1004.7 |
| 20260509010047 | 70 | 164 | 0.0 | 0.0 | 0.00 | 0.21 | 0.21 | 78 | 1004.8 |
| 20260509004549 | 71 | 240 | 0.0 | 0.0 | 0.00 | 0.21 | 0.21 | 78 | 1004.5 |
| 20260509003054 | 71 | 155 | 0.0 | 0.0 | 0.00 | 0.21 | 0.21 | 78 | 1004.0 |
| 20260509001546 | 71 | 143 | 0.0 | 0.0 | 0.00 | 0.21 | 0.21 | 80 | 1003.5 |
| 20260509000045 | 70 | 165 | 0.0 | 0.0 | 0.00 | 0.21 | 0.21 | 80 | 1003.3 |
| 20260508234545 | 71 | 254 | 0.0 | 0.0 | 0.20 | 0.21 | 0.21 | 87 | 1003.2 |
| 20260508233046 | 70 | 333 | 0.0 | 0.0 | 0.21 | 0.21 | 0.21 | 85 | 1002.9 |
| 20260508231547 | 69 | 221 | 0.0 | 0.0 | 0.21 | 0.21 | 0.21 | 82 | 1002.8 |
| 20260508230043 | 69 | 146 | 0.0 | 0.0 | 0.21 | 0.21 | 0.21 | 79 | 1003.1 |
| 20260508224548 | 82 | 271 | 0.0 | 0.0 | 0.01 | 0.01 | 0.01 | 49 | 1004.0 |
| 20260508223037 | 82 | 204 | 0.0 | 0.0 | 0.00 | 0.00 | 0.00 | 44 | 1002.4 |
| 20260508221538 | 83 | 258 | 0.0 | 0.0 | 0.00 | 0.00 | 0.00 | 43 | 1002.6 |
| 20260508220037 | 84 | 327 | 0.0 | 0.0 | 0.00 | 0.00 | 0.00 | 43 | 1002.3 |
| 20260508214537 | 86 | 286 | 0.0 | 0.0 | 0.00 | 0.00 | 0.00 | 42 | 1002.8 |
| 20260508213032 | 86 | 267 | 0.0 | 0.0 | 0.00 | 0.00 | 0.00 | 42 | 1003.1 |